Weather History for Port Angeles, WA

Change the Weather History Date:

Monday, September 9, 2013

  Actual Average Record
Temperature  
Mean Temperature 60 °F -  
Max Temperature 68 °F 66 °F 82 °F (1989)
Min Temperature 53 °F 49 °F 39 °F (1964)
Degree Days  
Heating Degree Days 6    
Growing Degree Days 10 (Base 50)    
Moisture  
Dew Point 55 °F    
Average Humidity 90    
Maximum Humidity 100    
Minimum Humidity 73    
Precipitation  
Precipitation 0.00 in - - ()
Sea Level Pressure  
Sea Level Pressure 30.05 in    
Wind  
Wind Speed 4 mph (WNW)    
Max Wind Speed 8 mph    
Max Gust Speed -    
Visibility 7 miles    
Events Fog    
Averages and records for this station are not official NWS values.
T = Trace of Precipitation, MM = Missing Value Source: NWS Daily Summary

Daily Weather History Graph

Daily Weather History Graph

Search for Another Location

Airport:

Trip Planner

Search our weather history database for the weather conditions in past years. The results will help you decide how hot, cold, wet, or windy it might be!

Date:

Astronomy

Sep. 09, 2013 Rise Set
Actual Time 6:43 AM PDT 7:38 PM PDT
Civil Twilight 6:11 AM PDT 8:09 PM PDT
Nautical Twilight 5:33 AM PDT 8:47 PM PDT
Astronomical Twilight 4:53 AM PDT 9:27 PM PDT
Moon 11:35 AM PDT (9/9) 9:33 PM PDT (9/9)
Length of Visible Light 13h 58m
Length of Day
12h 54m
Waxing Crescent, 20% of the Moon is Illuminated
Sep 9
Waxing Crescent
Sep 12
First Quarter
Sep 19
Full
Sep 26
Last Quarter
Oct 4
New

Hourly Weather History & Observations

Time (PDT) Temp. Dew Point Humidity Pressure Visibility Wind Dir Wind Speed Gust Speed Precip Events Conditions
12:05 AM 57.0 °F 55.9 °F 96% 30.06 in 1.8 mi WNW 5.8 mph - N/A   Overcast
12:19 AM 57.0 °F 55.9 °F 96% 30.06 in 3.0 mi WNW 6.9 mph - N/A   Overcast
12:53 AM 57.0 °F 55.9 °F 96% 30.06 in 7.0 mi West 4.6 mph - N/A   Overcast
1:10 AM 57.0 °F 55.9 °F 96% 30.06 in 1.8 mi West 4.6 mph - N/A   Overcast
1:17 AM 57.0 °F 55.0 °F 93% 30.06 in 3.0 mi West 8.1 mph - N/A   Overcast
1:53 AM 57.0 °F 55.0 °F 93% 30.06 in 10.0 mi WSW 4.6 mph - N/A   Overcast
2:15 AM 57.0 °F 55.0 °F 93% 30.06 in 10.0 mi West 6.9 mph - N/A   Scattered Clouds
2:53 AM 55.9 °F 55.0 °F 97% 30.05 in 10.0 mi West 3.5 mph - N/A   Clear
3:53 AM 55.0 °F 54.0 °F 96% 30.05 in 10.0 mi Calm Calm - N/A   Clear
4:33 AM 55.0 °F 54.0 °F 96% 30.06 in 10.0 mi Calm Calm - N/A   Scattered Clouds
4:53 AM 55.0 °F 54.0 °F 96% 30.06 in 10.0 mi Calm Calm - N/A   Scattered Clouds
5:00 AM 54.0 °F 53.1 °F 97% 30.06 in 10.0 mi Calm Calm - N/A   Mostly Cloudy
5:13 AM 55.0 °F 53.1 °F 93% 30.05 in 10.0 mi Calm Calm - N/A   Scattered Clouds
5:53 AM 53.1 °F 51.1 °F 93% 30.06 in 10.0 mi West 3.5 mph - N/A   Clear
6:17 AM 53.1 °F 51.1 °F 93% 30.06 in 10.0 mi Calm Calm - N/A   Partly Cloudy
6:53 AM 53.1 °F 51.1 °F 93% 30.05 in 10.0 mi SW 3.5 mph - N/A   Clear
7:53 AM 57.0 °F 54.0 °F 89% 30.07 in 10.0 mi Calm Calm - N/A   Clear
8:10 AM 57.9 °F 55.9 °F 93% 30.07 in 10.0 mi NW 4.6 mph - N/A   Scattered Clouds
8:53 AM 57.9 °F 55.9 °F 93% 30.07 in 10.0 mi Variable 3.5 mph - N/A   Scattered Clouds
9:53 AM 62.1 °F 55.9 °F 80% 30.08 in 10.0 mi Calm Calm - N/A   Clear
10:53 AM 64.0 °F 55.9 °F 75% 30.08 in 10.0 mi North 5.8 mph - N/A   Clear
11:53 AM 64.0 °F 57.0 °F 78% 30.09 in 10.0 mi Variable 5.8 mph - N/A   Clear
12:53 PM 64.9 °F 57.0 °F 75% 30.07 in 10.0 mi Variable 4.6 mph - N/A   Clear
1:53 PM 66.0 °F 57.9 °F 75% 30.06 in 10.0 mi North 5.8 mph - N/A   Clear
2:53 PM 66.9 °F 57.9 °F 73% 30.05 in 10.0 mi North 4.6 mph - N/A   Clear
3:53 PM 66.9 °F 57.9 °F 73% 30.04 in 10.0 mi WNW 6.9 mph - N/A   Clear
4:53 PM 66.9 °F 57.9 °F 73% 30.03 in 10.0 mi NW 6.9 mph - N/A   Clear
5:53 PM 64.9 °F 57.9 °F 78% 30.02 in 10.0 mi NW 8.1 mph - N/A   Clear
6:37 PM 59.0 °F 55.9 °F 90% 30.02 in 10.0 mi NW 6.9 mph - N/A   Partly Cloudy
6:53 PM 59.0 °F 55.9 °F 90% 30.01 in 10.0 mi NW 3.5 mph - N/A   Partly Cloudy
7:53 PM 55.9 °F 54.0 °F 93% 30.01 in 10.0 mi WNW 4.6 mph - N/A   Mostly Cloudy
8:10 PM 57.0 °F 55.9 °F 96% 30.02 in 1.8 mi NW 6.9 mph - N/A   Overcast
8:31 PM 57.0 °F 55.9 °F 96% 30.02 in 1.8 mi West 4.6 mph - N/A   Overcast
8:50 PM 57.2 °F 55.4 °F 94% 30.02 in 0.8 mi West 5.8 mph - N/A   Mist
8:53 PM 57.0 °F 55.9 °F 96% 30.03 in 0.8 mi WNW 4.6 mph - N/A   Mist
9:53 PM 55.9 °F 55.0 °F 97% 30.02 in 1.0 mi West 5.8 mph - N/A   Mist
10:00 PM 55.9 °F 55.0 °F 97% 30.02 in 0.8 mi West 5.8 mph - N/A   Mist
10:21 PM 55.9 °F 55.0 °F 97% 30.02 in 0.2 mi WNW 5.8 mph - N/A Fog Fog
10:53 PM 55.0 °F 55.0 °F 100% 30.02 in 0.2 mi Calm Calm - N/A Fog Fog
11:53 PM 55.0 °F 54.0 °F 96% 30.02 in 0.2 mi Calm Calm - N/A Fog Fog